Regional Weather Roundup
Issued by NWS

Home | Current Version | Previous Version | Graphics & Text | Print | Product List | Glossary On
Versions: 1 2 3 4 5 6 7 8 9 10 11 12 13 14 15 16 17 18 19 20 21 22 23 24 25 26 27 28 29 30 31 32 33 34 35 36 37 38 39 40 41 42 43 44 45 46 47 48 49 50
764
ASUS45 KPSR 280310
RWRAZ

ARIZONA REGIONAL HOURLY WEATHER ROUNDUP
NATIONAL WEATHER SERVICE TUCSON AZ
800 PM MST SAT MAY 27 2017

NOTE: FAIR INDICATES FEW OR NO CLOUDS BELOW 12,000 FEET WITH NO
SIGNIFICANT WEATHER AND/OR OBSTRUCTIONS TO VISIBILITY.

AZZ001>003-036-280400-
NORTHWEST ARIZONA

CITY           SKY/WX    TMP DP  RH WIND       PRES   REMARKS
BULLHEAD CITY  CLEAR     93  28  10 SW3       29.83R
KINGMAN        CLEAR     77  24  14 SW9       30.01R
$$

AZZ004>008-015-016-018-280400-
NORTH CENTRAL ARIZONA

CITY           SKY/WX    TMP DP  RH WIND       PRES   REMARKS
GRAND CANYON   CLEAR     54  27  35 CALM      30.20R
WILLIAMS       PTCLDY    63  23  22 SW8       30.20R
PRESCOTT       CLEAR     70  22  16 W7        30.10S
FLAGSTAFF      PTCLDY    59  23  25 CALM      30.21R
PAYSON         PTCLDY    72  18  13 W5        30.13S
PAGE           CLEAR     77  28  16 CALM      30.03R
$$

AZZ009>014-017-280400-
NORTHEAST ARIZONA

CITY           SKY/WX    TMP DP  RH WIND       PRES   REMARKS
WINSLOW        PTCLDY    73  21  14 NW3       30.07R
SAINT JOHNS    PTCLDY    69  20  15 W7        30.10R
WINDOW ROCK    PTCLDY    64  25  22 N12       30.19R
SHOW LOW       PTCLDY    63  16  16 SW9       30.18S
$$

AZZ023-280400-
GREATER PHOENIX AREA

CITY           SKY/WX    TMP DP  RH WIND       PRES   REMARKS
PHOENIX        CLEAR     91  30  11 W7        29.84S
BUCKEYE        CLEAR     82  32  16 W7        29.85S
LUKE AFB       CLEAR     89  31  12 S7        29.84R
DEER VALLEY    CLEAR     88  26  10 SW6       29.86S
SCOTTSDALE     CLEAR     89  29  11 SW5       29.88S
MESA-FALCON    CLEAR     88  30  12 W5        29.87S
MESA-GATEWAY   PTCLDY    88  25  10 W6        29.88R
CHANDLER       CLEAR     90  21   8 W6        29.86S
$$

AZZ027-028-280400-
SOUTHWEST MARICOPA COUNTY AND PINAL COUNTY

CITY           SKY/WX    TMP DP  RH WIND       PRES   REMARKS
CASA GRANDE    CLEAR     88  28  11 N8        29.88R
$$

AZZ503-504-507>509-280400-
SOUTHEAST ARIZONA

CITY           SKY/WX    TMP DP  RH WIND       PRES   REMARKS
TUCSON         CLEAR     85  18   8 N8        29.95R
DAVIS-MONTHAN  CLEAR     84  15   7 NW9       29.94R
RYAN FIELD     CLEAR     84  19   9 NW8       29.94R
NOGALES        CLEAR     76   5   6 S3        30.03R
SIERRA VISTA   CLEAR     74   3   6 SW9       30.09R
DOUGLAS        CLEAR     75   8   7 SW9       30.03R
SAFFORD        CLEAR     83  12   7 NW12      29.94R
$$

AZZ020-021-025-026-031-280400-
SOUTHWEST ARIZONA

CITY           SKY/WX    TMP DP  RH WIND       PRES   REMARKS
YUMA           CLEAR     89  48  24 W7        29.83R
$$

CAZ031-033-041-043-047-048-061-280400-
SOUTHERN CALIFORNIA

CITY           SKY/WX    TMP DP  RH WIND       PRES   REMARKS
DOWNTOWN L.A.  CLEAR     66  50  56 W3        30.02S
L.A. AIRPORT   PTCLDY    63  53  70 W15       30.02S
SAN DIEGO      PTCLDY    63  54  72 NW9       30.05S
BURBANK        CLEAR     65  49  56 S6        30.01S
ONTARIO        PTCLDY    68  50  52 SW12      30.00S
RIVERSIDE      CLEAR     67  52  58 W10       30.00S
PALM SPRINGS   CLEAR     88  45  22 NW17      29.87R
EL CENTRO NAS  CLEAR     84  40  21 NE8       29.83R
IMPERIAL       CLEAR     91  33  12 NE5       29.81S
BLYTHE         CLEAR     92  13   5 W8        29.82S
NEEDLES        CLEAR     94  25   8 SW8       29.84S
$$

NVZ020-UTZ003-280400-
SOUTHERN NEVADA-UTAH

CITY           SKY/WX    TMP DP  RH WIND       PRES   REMARKS
LAS VEGAS      PTCLDY    88  24  10 CALM      29.91S
SALT LAKE CITY PTCLDY    63  41  44 W8        30.20R
$$

NMZ009-TXZ055-280400-
NEW MEXICO-WEST TEXAS

CITY           SKY/WX    TMP DP  RH WIND       PRES   REMARKS
ALBUQUERQUE    PTCLDY    76  17  11 N12       30.06R
EL PASO        PTCLDY    87  17   7 NW13      29.96R
$$


........................KEY........................
SKY/WX - SKY CONDITION/WEATHER
TMP    - TEMPERATURE IN FAHRENHEIT
DP     - DEWPOINT IN FAHRENHEIT
RH     - RELATIVE HUMIDITY IN PERCENT
WIND   - DIRECTION AND SPEED IN MILES PER HOUR (MPH)
VRB    - VARIABLE WIND DIRECTION
PRES   - MEAN SEA LEVEL PRESSURE IN INCHES OF MERCURY
         F - FALLING PRESSURE   R - RISING PRESSURE
         S - STEADY PRESSURE
VSB    - VISIBILITY IN MILES
HX     - HEAT INDEX IN FAHRENHEIT
WCI    - WIND CHILL INDEX IN FAHRENHEIT
TC     - TEMPERATURE IN CELSIUS WHICH IS ALSO KNOWN AS
         TEMPERATURE IN CENTIGRADE
AFB    - AIR FORCE BASE
         LUKE AFB IS LUKE AIR FORCE BASE
         DAVIS-MONTHAN IS DAVIS-MONTHAN AIR FORCE BASE
NAS    - NAVAL AIR STATION
         EL CENTRO NAS IS EL CENTRO NAVAL AIR STATION
N/A    - NOT AVAILABLE





USA.gov is the U.S. government's official web portal to all federal, state and local government web resources and services.